This is the latest recevied weather packets stored in our database for station/object KB3HLL. If no packets are shown the sender has not sent any weather packets the latest 10 day(s).
| Time | Temp. | Humidity | Pressure | Rain* | Wind** | Luminosity | Snow |
|---|---|---|---|---|---|---|---|
| 1778001980 | 22.78° C | 54% | 1010.5 hPa | 0 mm | - | 902 W/m² | - |
| 1778001680 | 22.78° C | 55% | 1010.5 hPa | 0 mm | - | 569 W/m² | - |
| 1778001380 | 23.33° C | 54% | 1010.6 hPa | 0 mm | - | 718 W/m² | - |
| 1778001080 | 22.78° C | 54% | 1010.6 hPa | 0 mm | - | 970 W/m² | - |
| 1778000780 | 22.22° C | 55% | 1010.7 hPa | 0 mm | - | 804 W/m² | - |
| 1778000481 | 21.67° C | 57% | 1010.7 hPa | 0 mm | - | 876 W/m² | - |
| 1778000180 | 21.67° C | 56% | 1010.6 hPa | 0 mm | - | 391 W/m² | - |
| 1777999881 | 22.78° C | 56% | 1010.6 hPa | 0 mm | - | 377 W/m² | - |
| 1777999580 | 22.78° C | 57% | 1010.7 hPa | 0 mm | - | 767 W/m² | - |
| 1777999281 | 22.22° C | 57% | 1010.7 hPa | 0 mm | - | 975 W/m² | - |
| 1777998980 | 21.67° C | 58% | 1010.7 hPa | 0 mm | - | 1046 W/m² | - |
| 1777998678 | 21.11° C | 60% | 1010.9 hPa | 0 mm | - | 790 W/m² | - |
| 1777998380 | 21.11° C | 61% | 1010.8 hPa | 0 mm | - | 1131 W/m² | - |
| 1777998080 | 21.11° C | 62% | 1010.9 hPa | 0 mm | - | 685 W/m² | - |
| 1777997780 | 20.56° C | 62% | 1011.2 hPa | 0 mm | - | 356 W/m² | - |
| 1777997480 | 20.56° C | 62% | 1011.2 hPa | 0 mm | - | 186 W/m² | - |
| 1777997178 | 21.11° C | 61% | 1011.2 hPa | 0 mm | - | 347 W/m² | - |
| 1777996880 | 21.11° C | 62% | 1011.3 hPa | 0 mm | - | 251 W/m² | - |
| 1777996580 | 21.11° C | 62% | 1011.3 hPa | 0 mm | - | 596 W/m² | - |
| 1777996279 | 20.56° C | 62% | 1011.3 hPa | 0 mm | - | 868 W/m² | - |
| 1777995984 | 20.56° C | 62% | 1011.6 hPa | 0 mm | - | 279 W/m² | - |
| 1777995678 | 21.11° C | 63% | 1011.4 hPa | 0 mm | - | 534 W/m² | - |
| 1777995380 | 21.11° C | 63% | 1011.6 hPa | 0 mm | - | 997 W/m² | - |
| 1777995079 | 21.11° C | 62% | 1011.6 hPa | 0 mm | - | 354 W/m² | - |
| 1777994782 | 21.11° C | 62% | 1011.4 hPa | 0 mm | - | 1023 W/m² | - |
* Rain latest hour (hover to see other rain measurements)
** Current wind speed in m/s (hover to see current wind gust speed)